Regional Weather Roundup
Issued by NWS

Home | Current Version | Previous Version | Graphics & Text | Print | Product List | Glossary On
Versions: 1 2 3 4 5 6 7 8 9 10 11 12 13 14 15 16 17 18 19 20 21 22 23 24 25 26 27 28 29 30 31 32 33 34 35 36 37 38 39 40 41 42 43 44 45 46 47 48 49 50
000
ASUS43 KLMK 172002
RWRKY
KENTUCKY REGIONAL WEATHER ROUNDUP
NATIONAL WEATHER SERVICE LOUISVILLE KY
400 PM EDT THU APR 17 2014

NOTE "FAIR" INDICATES FEW OR NO CLOUDS BELOW 12,000 FEET
WITH NO SIGNIFICANT WEATHER AND/OR OBSTRUCTIONS TO VISIBILITY.

KYZ001>023-026-027-061>063-070>075-172100-
WESTERN AND SOUTH CENTRAL KENTUCKY

CITY           SKY/WX    TMP DP  RH WIND       PRES   REMARKS
PADUCAH        SUNNY     69  40  34 S5        30.24F
HENDERSON      SUNNY     66  39  37 S8        30.25F
OWENSBORO      SUNNY     66  39  37 VRB7      30.27F
HOPKINSVILLE   SUNNY     66  34  30 E7        30.26F
BOWLING GREEN  SUNNY     66  34  30 S5        30.28F
GLASGOW        NOT AVBL
$$

KYZ024-025-028>034-038-045-046-053-172100-
NORTH CENTRAL KENTUCKY

CITY           SKY/WX    TMP DP  RH WIND       PRES   REMARKS
LOUISVILLE/SDF CLOUDY    67  34  29 CALM      30.28F
LOUISVILLE/LOU SUNNY     68  34  28 SE8G18    30.29F
FORT KNOX      SUNNY     66  36  32 SE10      30.27F
$$

KYZ035>037-039>044-047>052-055>060-089>105-172100-
NORTHEAST KENTUCKY

CITY           SKY/WX    TMP DP  RH WIND       PRES   REMARKS
LEXINGTON      SUNNY     66  35  31 SW3       30.31F
COVINGTON      MOSUNNY   66  33  29 SW15G23   30.29F
FRANKFORT      SUNNY     66  35  31 S10       30.29F
$$

KYZ054-064>069-076>088-106>120-172100-
SOUTHEAST KENTUCKY

CITY           SKY/WX    TMP DP  RH WIND       PRES   REMARKS
JACKSON        SUNNY     68  19  15 CALM      30.31F
LONDON         SUNNY     68  24  19 NW5       30.30F
SOMERSET       NOT AVBL
MIDDLESBORO    NOT AVBL
MONTICELLO     CLEAR    111  66  23 S8        30.30F HX 116
$$




USA.gov is the U.S. government's official web portal to all federal, state and local government web resources and services.